Temp
84 95 102 100 84 77 81 83 89 84 86 93 94 89 83 84 78 69 90 91 89 94 95 91 81 81 82 82 81 80 80 80 81 81 81 80 80 80 81 81 81 82 82 82 82 82 82 82 82
103 104 102 96 82 71 79 82 80 88 91 95 94 91 85 78 88 82 87 89 94 97 93 88 80 80 81 81 81 81 80 80 80 81 81 81 81 81 81 80 80 81 82 82 82 82 82 82 82
93 105 94 88 59 73 80 88 88 89 91 93 88 91 86 81 86 89 93 93 98 97 94 84 80 80 80 79 79 79 79 79 79 78 79 80 81 82 80 81 80 81 82 82 83 82 82 82 82
102 102 99 84 83 89 86 88 91 90 93 95 91 80 86 90 87 87 93 97 99 98 94 83 79 80 79 79 79 79 79 78 78 79 78 77 77 80 80 81 81 81 81 82 82 81 81 81 81
103 100 90 87 85 89 93 92 92 89 90 92 91 79 80 89 93 93 92 95 97 97 95 89 79 79 79 79 78 78 78 77 77 78 78 77 76 77 77 77 77 78 80 80 81 81 80 80 80
95 100 88 81 84 89 92 93 92 91 91 89 87 82 81 91 90 92 94 94 97 96 95 90 80 78 78 78 78 77 77 77 77 77 77 77 78 77 78 76 75 76 75 78 79 80 80 80 80
92 93 89 87 85 86 89 95 92 91 89 87 94 80 84 88 91 94 95 96 97 98 98 95 92 82 78 78 78 78 78 78 77 78 78 78 78 78 79 79 77 77 77 77 77 77 78 78 78
99 100 89 88 78 83 91 93 95 91 85 93 94 81 80 87 92 94 94 94 95 96 97 98 96 97 94 90 79 79 79 79 79 79 79 79 80 82 81 80 77 77 77 77 77 77 75 74 74
103 88 87 87 85 87 94 89 91 95 88 90 91 87 87 89 91 90 89 92 93 92 91 91 91 95 95 93 86 82 82 81 81 81 80 84 88 87 86 78 77 77 77 76 78 76 76 74 75
96 80 89 95 95 91 93 91 90 88 85 81 81 87 89 91 92 92 93 92 93 92 92 92 89 88 88 90 88 88 88 86 82 81 80 85 84 84 84 83 80 80 79 78 79 78 77 77 79
97 84 95 94 97 97 91 90 93 89 84 85 82 85 89 91 93 94 94 93 93 92 91 88 86 87 90 89 88 86 85 84 82 79 77 80 81 82 83 82 84 82 82 85 84 83 85 79 81
90 96 96 96 96 94 90 93 88 88 86 90 90 90 90 91 92 93 92 93 91 91 90 91 89 87 84 89 87 85 84 82 81 79 75 76 77 77 77 80 80 80 81 80 81 82 82 81 81
93 93 95 96 95 94 93 89 85 84 88 91 90 90 90 91 91 92 92 92 92 89 89 89 87 84 84 83 83 82 81 80 80 79 76 75 74 73 74 75 78 79 80 80 79 78 77 78 80
96 94 94 95 93 92 86 86 87 85 89 87 88 89 90 89 89 88 88 86 86 86 86 88 87 83 85 81 80 80 79 80 80 79 76 73 73 70 71 72 75 76 78 77 77 76 74 75 78
96 88 91 91 91 88 91 81 80 86 88 86 87 88 88 88 89 87 87 84 84 81 83 84 86 84 80 80 80 80 79 80 78 77 75 72 71 69 68 71 73 74 73 75 74 70 70 71 73
90 90 81 89 90 89 88 72 82 86 86 85 86 86 86 87 88 88 87 84 83 84 82 81 84 83 81 78 80 81 79 79 77 76 74 70 70 68 66 70 71 69 70 71 66 63 61 63 69
88 77 80 80 91 88 85 79 83 86 85 84 85 86 86 86 85 85 86 84 83 81 80 79 78 78 79 78 80 80 77 77 76 75 72 67 68 66 64 68 67 65 65 64 62 60 59 59 64
79 82 79 81 87 88 83 81 84 84 85 84 85 86 85 81 83 84 83 82 81 80 78 77 76 73 75 78 78 79 77 76 75 73 70 65 64 64 63 66 62 62 61 60 59 57 59 60 64
86 85 83 87 91 84 83 82 82 82 83 84 85 85 81 82 85 84 82 78 78 76 74 73 72 70 72 75 73 73 72 72 73 73 66 63 63 63 60 62 60 61 59 59 58 57 56 59 63
85 82 83 87 87 84 85 82 85 84 82 85 84 83 80 79 82 80 77 75 75 73 72 72 70 69 70 73 71 71 71 73 72 71 67 64 63 61 60 59 58 60 62 60 57 56 54 57 61
83 82 82 82 83 85 83 80 80 84 83 85 83 83 80 77 75 76 74 75 75 73 73 71 70 69 68 68 71 70 73 73 70 68 66 65 64 64 62 60 61 60 61 60 60 57 55 52 59
78 89 86 85 79 74 84 71 78 79 78 81 84 84 78 76 76 75 75 72 73 74 74 72 70 69 70 68 68 66 67 65 66 66 64 64 63 64 62 61 61 60 60 59 61 60 59 58 54
83 91 86 87 81 79 80 74 80 79 74 78 82 84 78 75 73 73 74 73 76 77 74 73 70 69 68 68 66 67 63 66 66 63 61 61 62 63 63 61 61 61 62 59 61 59 55 58 51
92 85 86 85 82 70 76 77 75 75 78 79 82 84 77 78 76 76 77 79 78 80 78 73 70 67 68 68 67 64 61 62 62 61 61 60 63 63 63 64 63 63 62 61 62 58 58 56 57
88 80 70 66 67 66 74 77 77 83 84 86 83 82 80 84 78 78 77 79 78 76 76 75 70 68 68 68 67 64 62 62 60 61 61 60 61 62 64 62 61 62 59 60 61 58 57 58 56
83 81 73 59 62 61 76 72 75 86 86 89 87 83 84 83 82 80 81 80 80 76 74 73 71 69 69 68 66 64 64 64 62 62 62 61 62 61 64 62 60 61 61 59 59 58 60 58 58
83 77 88 76 79 74 79 74 80 81 81 84 85 82 80 82 82 80 79 78 77 75 71 72 71 69 69 68 66 63 63 62 63 63 62 63 61 65 64 64 62 59 63 61 59 60 57 57 57
86 90 76 78 63 61 71 73 66 75 77 81 80 78 80 81 80 79 78 76 77 75 72 72 72 70 69 68 66 64 64 63 64 64 63 62 63 62 64 60 62 63 59 60 60 61 59 57 57
83 81 83 82 76 66 66 68 82 81 80 79 79 80 80 80 79 78 78 76 76 77 76 72 71 70 69 67 64 63 63 63 64 63 65 65 64 64 59 61 63 62 63 60 58 58 59 54 57
88 83 82 75 69 71 66 70 83 85 84 82 81 81 81 81 80 79 78 76 75 74 73 70 69 70 70 66 64 63 62 62 64 63 64 64 64 64 65 62 61 61 62 62 59 57 59 56 55
MSLP
1008.98 1007.99 1006.72 1005.44 1004.41 1004.06 1001.89 1002.03 1002.11 1002.71 1002.83 1004.61 1005.35 1006.02 1007.60 1008.29 1008.86 1011.07 1012.86 1013.18 1013.34 1012.61 1012.92 1013.61 1014.48 1014.33 1014.26 1014.33 1014.27 1014.15 1014.07 1014.20 1014.19 1014.28 1014.27 1014.43 1014.38 1014.40 1014.34 1014.64 1014.59 1014.77 1014.72 1014.73 1014.61 1015.04 1015.08 1014.98 1014.99
1007.08 1006.18 1005.67 1003.73 1003.28 1001.95 1001.77 1002.68 1003.26 1003.55 1004.50 1005.22 1005.53 1006.61 1008.20 1009.79 1010.71 1012.38 1012.50 1013.54 1012.62 1012.09 1013.63 1014.49 1014.92 1014.68 1014.60 1014.60 1014.61 1014.57 1014.50 1014.52 1014.59 1014.62 1014.52 1014.63 1014.75 1014.77 1014.72 1015.03 1015.01 1014.93 1014.96 1014.97 1014.94 1014.86 1014.94 1014.91 1015.08
1008.08 1005.71 1004.32 1002.17 1003.92 1002.14 1001.30 1002.54 1003.34 1004.67 1005.13 1004.77 1006.55 1007.85 1009.31 1010.78 1011.90 1012.09 1012.65 1012.99 1011.92 1012.11 1013.86 1015.39 1015.39 1015.13 1015.04 1015.08 1015.11 1015.14 1015.26 1015.07 1015.12 1015.21 1015.18 1015.24 1015.16 1015.22 1015.30 1015.46 1015.44 1015.39 1015.43 1015.04 1015.03 1015.00 1014.90 1014.82 1014.86
1005.86 1004.05 1003.07 1001.63 1000.92 1000.85 1002.14 1003.11 1003.56 1003.69 1004.39 1005.54 1006.94 1009.00 1011.18 1012.01 1012.38 1013.35 1013.24 1012.48 1012.07 1012.57 1014.28 1015.74 1015.74 1015.63 1015.64 1015.49 1015.58 1015.58 1015.54 1015.66 1015.67 1015.54 1015.54 1015.54 1015.39 1015.27 1015.33 1015.33 1015.46 1015.56 1015.77 1015.66 1015.48 1015.36 1015.22 1015.04 1015.15
1005.24 1002.44 1000.41 1000.02 1001.42 1002.15 1002.81 1003.35 1003.72 1003.72 1004.61 1005.69 1007.17 1009.69 1011.39 1012.47 1012.75 1013.25 1013.72 1013.08 1012.86 1013.25 1014.15 1015.59 1016.13 1016.06 1016.13 1016.12 1016.10 1016.09 1016.10 1016.10 1016.03 1015.94 1015.75 1015.68 1015.59 1015.58 1015.87 1015.75 1015.89 1015.70 1015.95 1015.90 1015.77 1015.43 1015.35 1015.28 1015.27
1003.53 1001.41 999.61 1000.23 1001.86 1002.83 1003.47 1004.07 1003.95 1004.69 1006.03 1007.30 1008.35 1009.86 1011.64 1012.60 1013.13 1013.38 1013.51 1013.44 1013.28 1013.69 1014.12 1015.43 1016.45 1016.34 1016.52 1016.55 1016.44 1016.54 1016.52 1016.54 1016.53 1016.34 1016.13 1015.92 1015.66 1015.62 1015.82 1015.74 1015.79 1015.10 1015.76 1016.00 1015.74 1015.49 1015.40 1015.23 1015.18
1002.94 1000.78 999.35 1000.21 1001.78 1002.74 1003.90 1004.25 1004.35 1004.98 1006.37 1007.29 1007.90 1009.84 1011.83 1012.49 1013.37 1013.38 1013.48 1013.59 1013.31 1013.26 1013.55 1014.18 1015.30 1016.21 1016.59 1016.75 1016.85 1016.91 1016.86 1016.92 1016.93 1016.63 1016.41 1016.16 1015.92 1015.84 1015.72 1015.65 1015.66 1015.38 1015.55 1016.07 1015.75 1015.37 1015.05 1015.45 1015.57
1001.85 999.55 999.80 1000.66 1002.76 1003.26 1004.52 1004.97 1005.56 1006.04 1007.78 1008.60 1008.59 1009.65 1011.52 1012.89 1013.20 1013.44 1013.71 1013.96 1014.03 1013.82 1013.77 1013.78 1014.36 1014.55 1015.05 1016.30 1017.17 1016.95 1017.12 1016.96 1016.91 1016.72 1016.47 1016.00 1015.71 1015.50 1015.50 1015.43 1015.83 1016.03 1015.96 1015.74 1015.26 1014.98 1014.79 1015.16 1015.30
1002.50 1000.64 999.66 1000.56 1001.80 1003.48 1004.56 1005.35 1007.10 1007.55 1008.48 1008.94 1009.70 1010.73 1012.29 1013.19 1013.44 1013.64 1013.72 1013.54 1014.17 1014.86 1015.36 1015.43 1015.51 1015.37 1015.43 1015.98 1016.89 1016.68 1016.91 1017.08 1017.01 1016.84 1016.71 1015.85 1015.55 1015.44 1015.50 1015.39 1015.72 1015.66 1015.53 1015.36 1014.79 1014.59 1014.19 1013.81 1014.26
1002.18 1001.95 1000.27 1001.49 1002.39 1003.60 1004.63 1005.76 1006.96 1007.91 1009.15 1010.53 1011.37 1012.03 1012.52 1012.58 1012.43 1012.22 1012.48 1013.09 1013.70 1014.45 1015.24 1015.89 1016.06 1016.34 1016.48 1016.44 1016.71 1016.73 1016.73 1017.04 1017.53 1017.52 1017.28 1016.43 1016.19 1015.70 1015.74 1015.23 1015.14 1014.85 1014.73 1014.59 1014.27 1014.10 1014.00 1013.83 1013.49
1001.12 1001.64 1001.60 1002.44 1003.16 1004.08 1005.31 1006.10 1006.84 1007.12 1008.47 1010.05 1010.92 1011.59 1012.00 1011.98 1011.84 1011.88 1012.40 1013.27 1013.95 1014.71 1015.55 1016.46 1016.91 1016.91 1016.44 1016.69 1016.66 1017.05 1017.20 1017.20 1017.47 1017.72 1017.93 1017.15 1016.71 1015.94 1015.53 1015.11 1014.66 1014.64 1014.27 1013.73 1013.60 1013.65 1013.04 1013.12 1012.55
1001.67 1001.96 1002.34 1003.39 1004.17 1004.72 1005.55 1006.58 1007.40 1008.01 1009.39 1010.33 1011.01 1011.64 1011.95 1011.88 1012.12 1012.72 1013.17 1013.65 1014.50 1015.09 1015.83 1016.31 1016.89 1017.07 1017.60 1016.94 1017.14 1017.33 1017.38 1017.77 1017.62 1017.90 1018.33 1017.77 1017.23 1016.64 1016.34 1015.50 1015.11 1014.57 1014.23 1014.00 1013.72 1013.53 1013.15 1013.19 1012.88
1001.66 1002.70 1003.39 1004.13 1004.53 1005.34 1006.28 1007.02 1008.26 1009.49 1010.39 1010.86 1011.58 1011.84 1011.81 1012.11 1012.74 1013.32 1013.84 1014.39 1014.94 1015.52 1016.16 1016.68 1017.24 1017.72 1017.87 1017.90 1017.92 1017.94 1018.12 1018.06 1018.20 1018.02 1018.39 1018.60 1018.14 1017.70 1017.23 1016.41 1015.55 1014.96 1014.51 1014.15 1013.88 1013.85 1013.64 1013.21 1012.67
1002.61 1003.39 1003.86 1004.46 1005.25 1006.05 1007.00 1007.94 1008.37 1010.16 1010.76 1011.31 1011.61 1011.84 1012.22 1012.86 1013.56 1014.15 1014.70 1015.33 1015.94 1016.39 1016.77 1017.15 1017.45 1018.13 1017.87 1018.31 1018.46 1018.37 1018.58 1018.23 1018.19 1018.18 1018.64 1018.94 1018.61 1018.48 1017.96 1017.09 1016.06 1015.33 1014.87 1014.79 1014.43 1014.14 1014.19 1013.32 1012.62
1003.13 1003.57 1004.11 1004.63 1005.41 1006.29 1006.94 1007.76 1008.61 1010.23 1010.75 1011.14 1011.54 1012.01 1012.59 1013.30 1013.97 1014.49 1015.21 1015.94 1016.62 1017.17 1017.65 1017.58 1017.47 1018.03 1018.63 1018.52 1018.56 1018.33 1018.61 1018.52 1018.54 1018.57 1018.76 1019.18 1019.03 1018.74 1018.39 1017.25 1016.46 1015.96 1016.00 1015.30 1014.78 1015.67 1015.26 1014.30 1013.21
1003.14 1003.13 1002.91 1003.76 1004.85 1006.22 1006.89 1007.28 1009.11 1010.18 1010.48 1010.84 1011.44 1012.09 1012.69 1013.40 1014.07 1014.94 1015.79 1016.57 1017.13 1017.25 1018.03 1018.44 1018.44 1018.35 1018.59 1018.96 1018.44 1018.20 1018.43 1018.53 1018.76 1018.88 1019.02 1019.64 1019.37 1019.25 1019.01 1017.66 1016.93 1017.28 1016.61 1015.79 1016.27 1016.37 1016.08 1015.34 1013.92
1002.34 1001.71 1002.08 1002.61 1004.23 1005.58 1006.88 1006.61 1008.87 1010.04 1010.17 1010.51 1011.15 1011.78 1012.49 1013.39 1014.54 1015.45 1016.11 1016.94 1017.54 1018.22 1018.50 1018.73 1019.23 1019.12 1018.99 1018.88 1018.56 1018.22 1018.51 1018.74 1019.05 1019.25 1019.59 1020.27 1019.89 1019.98 1019.63 1018.36 1018.08 1018.14 1017.64 1017.22 1016.97 1016.78 1016.35 1015.53 1014.37
1001.17 1001.13 1002.71 1001.99 1003.69 1004.89 1005.76 1006.59 1007.98 1009.69 1009.86 1010.03 1010.76 1011.37 1012.17 1013.34 1014.52 1015.79 1016.63 1017.46 1018.10 1018.66 1019.16 1019.46 1019.66 1019.90 1019.45 1019.01 1018.79 1018.54 1018.64 1018.91 1019.27 1019.47 1020.02 1020.58 1020.65 1020.47 1020.09 1018.92 1019.12 1018.56 1018.08 1017.68 1017.55 1017.16 1016.64 1015.68 1014.26
1001.70 1001.27 1001.25 1001.64 1002.96 1004.62 1005.05 1005.74 1007.11 1008.87 1009.56 1009.68 1010.29 1010.98 1012.06 1013.25 1014.41 1015.93 1017.16 1018.31 1018.58 1019.23 1019.77 1019.90 1020.05 1020.38 1020.05 1019.50 1019.40 1019.24 1019.25 1019.40 1019.48 1019.57 1020.39 1020.92 1020.84 1020.65 1020.47 1019.83 1019.45 1018.79 1018.16 1017.88 1017.60 1017.28 1016.69 1015.77 1014.62
1001.89 1001.98 1001.53 1002.02 1003.56 1004.49 1004.05 1004.71 1005.78 1007.53 1008.88 1009.13 1009.77 1010.59 1011.94 1013.52 1014.46 1016.07 1017.68 1018.68 1018.97 1019.57 1019.92 1020.16 1020.47 1020.72 1020.65 1020.16 1020.25 1020.16 1019.92 1019.63 1019.80 1019.84 1020.46 1020.75 1020.79 1020.86 1020.56 1020.19 1019.71 1018.93 1018.14 1017.79 1017.70 1017.24 1016.95 1016.21 1015.17
1002.14 1001.95 1001.64 1001.91 1003.44 1004.21 1003.94 1003.65 1004.88 1006.40 1007.88 1008.70 1009.51 1010.61 1011.97 1013.45 1014.74 1016.24 1017.64 1018.35 1018.93 1019.60 1019.92 1020.46 1020.83 1021.06 1021.29 1021.10 1020.56 1020.41 1019.67 1019.47 1020.02 1020.29 1020.72 1020.78 1020.69 1020.44 1020.24 1020.03 1019.40 1019.00 1018.49 1017.93 1017.54 1017.32 1017.02 1016.34 1015.50
1001.67 1001.69 1002.07 1001.80 1002.90 1002.33 1003.33 1002.19 1003.25 1005.42 1006.80 1007.82 1008.65 1009.91 1011.70 1013.37 1014.78 1016.05 1017.19 1018.34 1018.96 1019.51 1020.19 1020.65 1021.04 1021.37 1021.43 1021.60 1020.97 1020.91 1020.42 1020.36 1020.84 1020.90 1021.22 1020.92 1020.95 1020.48 1020.22 1019.93 1019.51 1019.13 1018.64 1018.16 1017.60 1017.26 1016.85 1016.64 1016.12
1001.45 1001.41 1001.52 1001.54 1002.22 1002.72 1001.85 1002.62 1000.92 1004.31 1005.83 1006.99 1008.11 1009.17 1011.21 1012.99 1014.60 1015.91 1016.86 1018.03 1018.61 1019.16 1019.85 1020.58 1021.25 1021.53 1021.70 1021.63 1021.56 1021.33 1021.50 1021.13 1021.44 1021.46 1021.44 1021.24 1021.02 1020.52 1020.14 1019.91 1019.48 1018.99 1018.44 1018.23 1017.65 1017.26 1017.17 1016.73 1016.84
1001.35 1001.85 1001.75 1001.69 1001.93 1001.35 1000.96 1001.79 1001.39 1003.27 1004.59 1006.16 1007.43 1008.66 1010.76 1012.43 1014.20 1015.42 1016.46 1017.38 1017.98 1018.43 1019.14 1020.37 1021.04 1021.59 1021.68 1021.56 1021.64 1021.86 1022.05 1021.70 1021.55 1021.51 1021.23 1021.16 1020.76 1020.25 1020.10 1019.74 1019.35 1018.77 1018.34 1017.97 1017.49 1017.51 1017.10 1016.67 1016.25
1001.32 1001.44 1000.99 1001.09 1000.86 1000.60 1002.05 1001.14 1000.81 1002.43 1003.70 1004.50 1006.54 1008.19 1010.30 1011.57 1013.57 1014.94 1016.20 1016.75 1017.53 1018.44 1019.07 1019.78 1020.83 1021.27 1021.59 1021.52 1021.62 1022.16 1022.14 1022.06 1021.93 1021.60 1021.28 1021.07 1020.62 1020.23 1019.76 1019.70 1019.29 1018.88 1018.72 1018.23 1017.46 1017.12 1016.93 1016.54 1016.13
1000.72 1000.65 999.66 999.86 1000.05 1000.99 1001.31 1000.09 1001.39 1002.17 1003.79 1004.55 1006.20 1008.00 1009.90 1011.43 1012.99 1014.44 1015.35 1016.32 1017.14 1018.53 1019.46 1019.79 1020.50 1021.01 1021.33 1021.49 1021.94 1022.18 1022.32 1022.06 1022.00 1021.72 1021.48 1021.08 1020.62 1020.17 1019.78 1019.67 1019.49 1019.04 1018.61 1018.17 1017.65 1017.13 1016.77 1016.49 1016.07
999.96 1000.18 999.68 999.46 999.41 999.66 999.23 1000.77 1002.45 1003.37 1004.19 1004.88 1006.03 1008.26 1010.11 1011.28 1012.70 1014.10 1015.54 1016.59 1017.47 1018.60 1019.67 1020.05 1020.50 1021.06 1021.32 1021.53 1022.02 1022.40 1022.44 1022.44 1022.06 1021.76 1021.52 1021.03 1020.90 1020.10 1019.80 1019.43 1019.20 1019.13 1018.32 1018.09 1017.61 1016.97 1016.72 1016.40 1016.00
999.72 999.52 999.57 999.80 999.95 999.74 999.59 1000.08 1001.85 1003.28 1004.19 1005.03 1006.55 1008.62 1010.13 1011.38 1013.00 1014.47 1015.69 1016.83 1017.62 1018.69 1019.75 1020.14 1020.38 1020.94 1021.28 1021.64 1022.30 1022.41 1022.40 1022.41 1022.04 1021.65 1021.37 1021.05 1020.71 1020.41 1019.75 1019.75 1019.17 1018.71 1018.57 1018.07 1017.61 1016.95 1016.80 1016.34 1015.91
999.71 999.29 999.02 999.32 1000.12 1000.11 999.89 1000.76 1001.94 1002.43 1004.03 1005.12 1006.89 1008.56 1010.16 1011.59 1013.08 1014.48 1015.64 1016.93 1017.73 1018.37 1019.08 1020.00 1020.37 1020.80 1021.12 1021.86 1022.41 1022.58 1022.49 1022.38 1021.96 1021.68 1021.35 1020.89 1020.58 1020.20 1020.17 1019.82 1019.22 1018.83 1018.28 1018.14 1017.79 1017.28 1016.80 1016.68 1016.00
999.14 998.65 998.92 998.97 999.64 1001.39 1001.97 1001.84 1003.05 1002.97 1004.10 1005.61 1007.03 1008.57 1010.30 1011.65 1013.09 1014.28 1015.47 1016.78 1017.73 1018.48 1019.22 1020.13 1020.68 1020.87 1021.17 1021.90 1022.41 1022.56 1022.60 1022.45 1021.96 1021.70 1021.29 1020.99 1020.65 1020.21 1019.84 1019.82 1019.47 1019.05 1018.58 1018.10 1018.02 1017.60 1017.06 1016.82 1016.53
Wind_Speed
10 13 12 7 9 9 9 12 11 8 19 16 18 17 22 23 18 9 6 8 10 10 11 18 14 13 12 12 12 13 14 13 8 5 4 3 2 8 8 8 9 10 12 12 11 9 7 5 6
14 10 9 10 1 6 13 17 12 17 14 12 12 18 19 19 18 15 7 5 2 11 16 15 15 15 14 13 12 12 13 14 13 12 9 2 4 5 7 7 9 9 11 10 10 10 9 7 6
16 15 11 10 7 3 16 14 15 10 4 6 10 15 11 14 14 10 6 8 2 17 17 14 15 17 19 19 18 19 17 16 18 18 17 14 11 7 5 7 9 10 11 10 11 10 10 10 10
10 10 10 12 12 20 19 12 8 13 15 13 18 16 11 12 8 12 10 3 12 17 15 14 14 16 17 17 18 18 18 17 15 14 12 13 14 10 10 11 12 13 14 14 11 12 12 12 11
11 11 14 13 17 14 11 8 7 9 9 11 19 17 14 14 10 13 9 6 11 11 15 15 14 16 17 17 18 17 17 17 17 16 14 10 9 9 12 9 9 11 16 14 14 12 12 12 13
11 11 2 13 15 12 12 6 7 15 16 15 19 16 11 10 12 10 10 7 9 10 14 15 14 17 17 18 18 18 18 18 16 15 13 12 11 6 8 7 8 11 12 20 13 12 12 13 12
16 7 4 16 14 14 11 3 11 13 15 10 14 16 10 14 9 10 10 8 8 10 11 14 16 18 20 18 18 17 16 15 15 13 10 4 3 3 5 8 12 12 9 15 13 12 10 13 15
14 8 11 15 7 15 9 12 10 13 13 6 4 11 12 13 10 10 12 12 12 14 13 13 12 13 15 15 13 15 12 11 10 12 15 13 9 5 5 4 11 8 8 11 12 10 11 10 24
13 12 10 17 12 16 10 14 11 14 12 17 21 19 15 13 13 12 10 13 16 13 13 14 14 13 12 11 9 11 12 12 13 14 14 12 10 10 13 7 1 6 7 11 11 9 10 17 25
6 16 17 15 16 14 10 14 12 12 14 16 16 14 13 13 13 16 14 14 15 16 16 14 10 9 8 7 7 8 8 8 9 11 13 10 12 9 13 11 11 8 6 10 7 11 13 16 11
2 6 14 7 17 14 12 12 9 11 14 13 13 14 13 11 10 12 15 15 14 14 12 12 9 9 9 7 6 5 5 6 6 10 11 10 10 9 10 9 8 10 11 8 9 10 8 8 9
2 11 12 14 11 12 13 11 13 16 14 12 12 14 12 12 13 12 13 13 13 14 12 11 11 8 10 8 7 8 6 7 7 8 12 11 9 10 11 9 11 9 8 10 9 8 11 10 12
7 9 10 11 9 12 10 11 12 14 12 12 12 12 12 13 13 12 12 13 12 12 11 12 11 8 9 9 8 7 8 7 8 8 10 10 11 11 12 12 10 10 10 9 10 9 11 12 13
12 10 12 11 12 10 13 14 9 12 13 12 12 12 12 13 13 11 11 11 11 11 10 9 11 10 11 8 8 7 7 8 8 8 9 13 10 10 11 12 11 11 10 11 11 10 12 12 13
13 12 13 13 13 11 10 10 11 13 13 13 13 11 12 12 11 10 10 10 10 9 9 8 7 10 9 10 7 6 8 8 8 8 10 12 12 12 13 11 10 10 12 14 9 12 13 13 13
15 14 17 16 14 9 11 10 14 14 14 14 13 12 12 11 11 9 10 9 8 8 8 9 11 11 10 8 8 6 7 7 8 8 9 15 14 15 14 11 10 13 12 11 9 9 8 10 13
14 12 9 11 15 12 14 10 15 13 13 13 13 13 12 12 10 7 8 9 9 8 8 10 10 13 11 10 9 9 9 7 8 8 9 13 13 14 12 11 11 12 11 11 9 8 9 10 11
11 15 24 12 15 11 12 9 15 14 14 13 14 14 12 10 11 8 7 10 7 9 9 9 10 12 11 8 9 7 7 7 7 7 9 12 9 12 11 10 11 9 6 7 7 10 10 11 10
8 8 10 5 15 10 12 11 11 16 15 14 14 14 12 10 13 10 9 6 8 9 9 9 11 12 10 8 8 7 7 7 7 7 11 9 9 12 11 10 9 10 8 8 8 7 11 10 11
8 16 13 10 8 9 11 12 14 18 17 15 15 14 14 9 12 10 9 5 7 8 7 9 10 11 10 7 6 6 5 5 6 8 10 8 9 8 9 8 8 10 10 8 9 8 6 9 9
13 18 14 8 9 11 12 16 15 17 18 17 14 12 13 14 10 11 9 6 7 7 7 8 9 9 9 10 6 7 4 5 8 9 9 10 12 11 9 8 10 9 9 10 10 8 9 7 10
19 15 15 15 7 12 14 12 20 18 19 19 18 16 16 14 12 12 11 7 5 7 7 7 8 8 8 9 7 8 8 8 8 9 9 8 11 11 9 9 9 9 7 7 9 8 9 10 10
16 14 13 14 12 19 13 9 3 19 19 19 18 16 16 15 12 12 12 10 9 7 6 7 7 7 6 8 9 9 9 8 8 7 7 7 8 9 10 8 9 10 8 10 12 11 9 5 4
13 7 14 10 13 18 12 13 8 16 16 18 18 16 16 16 17 14 14 11 8 7 7 8 6 6 6 7 9 10 8 8 8 8 7 6 6 5 9 9 9 10 10 9 8 9 10 9 6
15 14 11 11 13 13 10 10 8 13 5 15 17 17 20 15 16 13 11 11 7 6 6 7 6 6 6 7 9 10 9 8 8 8 7 9 6 7 10 10 11 9 10 12 12 6 8 11 7
19 16 14 5 13 12 24 6 10 12 8 12 16 18 15 15 16 14 12 9 9 7 5 5 7 6 6 8 10 8 9 6 5 7 7 6 7 5 9 10 9 10 10 9 10 8 7 7 9
19 17 21 12 13 11 12 10 8 10 11 11 18 17 17 15 15 13 11 8 8 8 5 6 6 7 6 9 7 6 6 6 7 7 7 6 7 9 10 12 9 9 11 11 12 9 8 5 5
13 10 11 10 15 12 4 10 10 12 12 15 19 18 17 15 15 13 11 8 7 7 7 5 6 6 6 9 7 6 5 5 6 7 9 9 9 8 9 8 10 10 10 11 13 10 10 11 7
12 16 9 11 4 12 11 7 6 11 12 16 18 18 17 16 15 13 11 9 7 6 9 6 5 5 6 8 5 4 5 5 6 6 8 9 9 10 11 11 11 12 11 13 11 13 11 10 10
11 17 16 9 11 6 6 5 2 7 14 15 18 18 17 16 14 13 12 10 9 6 7 7 4 4 6 8 3 4 4 4 6 6 8 9 9 11 10 8 11 11 13 13 13 12 12 9 11
Wind_Direction
213 219 238 256 247 175 63 119 76 87 79 67 63 67 59 47 29 52 167 57 357 83 50 63 33 42 45 55 53 52 52 53 69 120 114 147 184 182 172 192 195 201 204 199 191 196 194 198 209
237 238 240 269 352 336 88 1 86 66 82 85 54 87 70 62 78 102 67 77 256 88 64 47 45 51 49 49 56 59 56 50 48 46 31 3 251 225 203 220 224 223 217 227 232 219 218 207 221
264 249 272 197 304 174 81 76 85 76 106 108 108 53 40 77 49 77 99 151 129 80 70 59 56 57 62 59 55 52 52 55 52 46 41 29 28 12 275 265 270 266 261 247 246 250 240 227 216
244 224 233 212 76 67 79 76 113 149 120 79 118 86 85 36 77 62 31 17 57 74 71 75 69 71 69 68 62 58 57 55 54 50 60 55 36 21 9 354 343 333 309 290 279 275 266 256 242
244 256 253 69 81 59 66 69 7 69 53 93 97 84 92 90 75 91 81 35 68 68 85 78 71 74 70 69 65 63 59 51 46 41 35 40 31 12 345 9 3 353 326 305 296 288 278 270 267
254 262 236 98 95 85 64 39 76 72 87 103 105 95 85 94 87 104 105 77 83 78 88 94 95 84 78 74 71 67 62 58 51 43 41 40 43 15 358 11 340 356 320 307 291 291 293 282 269
251 240 87 104 113 100 75 52 44 114 83 38 113 95 108 100 105 91 83 91 80 91 112 114 110 107 83 72 72 67 65 63 56 41 21 25 53 15 342 27 30 356 324 288 297 300 287 307 293
279 264 119 98 149 96 97 78 62 56 93 80 204 124 116 106 104 97 104 92 70 55 52 88 99 85 93 86 89 85 65 51 56 49 5 321 194 39 68 58 43 347 317 321 312 289 268 245 279
256 285 102 104 96 112 143 96 76 77 78 58 57 83 104 119 126 116 113 115 102 103 84 62 45 44 55 72 116 117 96 59 33 15 7 349 360 356 340 77 307 297 306 315 302 288 275 238 239
249 297 76 86 109 110 89 100 121 122 107 98 102 110 126 148 155 150 134 104 102 90 76 63 56 93 49 62 43 36 37 45 31 22 357 358 343 347 321 326 315 267 276 272 276 280 259 242 230
236 210 97 91 90 103 108 112 131 137 126 136 122 123 140 142 135 112 88 94 101 102 98 93 69 39 30 70 23 36 28 17 26 23 3 355 331 351 330 323 333 328 316 302 332 302 284 333 291
126 86 97 97 120 127 101 95 66 62 73 108 122 127 135 144 108 115 123 99 86 76 70 78 64 61 41 14 30 15 20 3 11 13 19 353 341 353 340 330 325 317 320 323 307 309 307 297 286
152 119 118 134 130 104 138 103 103 104 114 113 121 142 139 110 102 92 89 80 81 80 67 66 55 50 42 32 10 24 357 22 355 3 29 355 346 354 334 332 318 325 319 320 318 320 311 306 285
128 148 143 151 122 134 118 128 126 123 125 128 149 133 126 124 118 118 100 90 76 58 59 54 63 42 24 39 7 5 18 356 3 8 21 2 347 354 337 322 333 323 328 333 312 336 320 303 297
148 153 156 157 155 152 145 154 121 140 147 143 143 140 133 130 132 116 104 90 91 84 53 28 46 54 32 9 6 0 29 352 8 7 17 10 350 351 341 327 329 334 340 309 358 342 324 321 310
179 174 187 168 160 142 234 127 134 161 165 160 159 153 150 148 130 118 104 97 86 69 79 61 17 28 18 22 349 354 27 358 18 3 10 12 354 358 340 326 347 357 314 354 345 338 320 311 309
214 213 182 163 167 143 223 113 150 180 186 172 175 168 167 151 129 127 115 113 90 76 54 45 44 26 6 14 353 1 18 20 16 10 17 14 0 357 337 332 356 344 344 335 346 333 321 319 305
221 224 213 160 166 201 198 245 149 182 202 186 187 181 178 160 150 144 103 84 93 74 58 55 38 26 1 10 359 12 16 23 14 20 24 26 5 354 341 338 345 327 329 330 344 328 328 306 308
319 263 292 145 120 195 246 199 189 180 213 199 192 197 162 178 143 140 113 101 90 74 64 44 43 26 8 18 7 4 4 24 7 25 41 27 4 356 341 348 339 324 333 343 349 332 328 328 330
260 280 268 79 108 244 245 228 191 187 207 214 199 200 152 164 158 142 124 125 100 87 73 55 39 33 18 10 15 355 10 20 7 33 18 41 25 17 346 336 340 331 337 342 345 329 346 322 338
238 246 255 243 142 241 264 255 201 200 191 216 203 192 160 170 157 158 152 168 111 90 65 59 45 31 31 346 23 360 10 22 21 19 15 16 9 7 14 343 352 342 343 342 331 3 330 338 336
243 228 258 273 199 269 185 298 185 190 192 206 202 197 153 155 162 159 161 136 127 109 85 66 48 32 47 19 33 32 9 15 31 6 24 17 9 5 7 351 353 347 337 352 340 337 342 0 346
244 269 275 236 223 262 220 250 176 173 194 203 209 201 151 153 153 155 156 150 152 137 98 75 63 48 47 50 36 19 18 15 19 3 10 10 360 356 14 352 350 348 347 347 336 347 339 354 339
249 229 249 236 238 235 265 223 150 167 199 197 198 201 147 168 154 161 140 148 158 136 116 84 81 66 51 46 55 49 20 9 2 7 357 6 348 356 11 0 356 349 352 347 341 341 330 318 339
220 207 210 218 236 254 223 214 100 133 159 181 183 171 157 163 149 153 159 165 145 103 71 101 73 81 61 59 52 36 14 7 359 351 359 336 349 350 6 346 354 342 349 339 341 334 337 338 332
205 200 259 230 263 146 241 245 99 118 130 152 170 149 149 169 150 164 166 149 124 96 71 86 110 77 74 53 46 42 15 11 7 359 352 345 346 345 356 345 345 350 348 345 345 330 347 339 331
195 234 245 304 288 273 279 81 123 132 143 163 150 142 165 173 153 147 136 137 109 108 93 106 86 87 55 66 51 37 22 21 347 359 357 0 1 349 353 353 2 346 359 4 342 359 343 346 333
264 232 238 230 270 287 312 238 91 170 162 168 142 162 163 153 149 146 149 128 119 109 124 98 93 78 68 57 41 34 8 29 342 360 15 12 11 343 359 1 358 0 356 352 343 5 354 345 12
207 244 232 286 239 262 310 73 73 159 165 161 156 162 160 160 154 155 141 140 124 131 114 123 107 87 71 78 31 28 13 9 354 6 19 13 13 16 22 7 358 358 2 14 10 351 9 2 358
275 237 248 248 258 322 276 333 59 109 146 160 162 160 157 164 153 156 143 140 151 115 116 117 105 91 71 92 53 39 14 6 348 10 18 4 8 2 20 359 15 6 360 13 12 356 2 349 4